FW1108 Weather Reports


time (UTC)temp
F
wind
direction
speed
knots
gust
knots
rain 1hr
in
rain 24hr
in
rain mn
in
humidity
%
barometer
mb
20260504090108 0 0.0 0.0 0.00 0.11 0.00 980.4
20260504081547 0 0.0 0.0 0.00 0.11 0.00 978.7
20260504044558 0 152 9.6 15.6 0.00 0.11 0.00 973.0
20260504043046 0 129 10.4 18.2 0.00 0.11 0.00 972.9
20260504041541 0 133 12.2 20.9 0.00 0.11 0.00 973.4
20260504040052 0 115 12.2 26.9 0.00 0.11 0.00 974.3
20260504034551 0 108 17.4 26.9 0.00 0.11 0.00 974.6
20260504033056 0 120 19.1 28.7 0.00 0.11 0.00 975.3
20260504031547 0 109 17.4 29.5 0.00 0.11 0.00 976.3
20260504030046 0 128 18.2 35.6 0.00 0.11 0.00 977.6
20260504024548 0 134 19.1 28.7 0.00 0.11 0.11 978.3
20260504023054 0 137 16.5 29.5 0.00 0.11 0.11 979.0
20260504021550 0 148 17.4 28.7 0.00 0.11 0.11 979.8
20260504020047 0 111 13.9 26.9 0.00 0.11 0.11 980.5
20260504014550 0 139 11.3 17.4 0.00 0.11 0.11 981.4
20260504013050 0 85 9.6 20.0 0.01 0.11 0.11 982.0
20260504011545 0 73 16.5 28.7 0.02 0.11 0.11 982.8
20260504010054 0 50 20.0 27.8 0.03 0.11 0.11 983.6
20260504004548 41 59 23.5 32.2 0.03 0.11 0.11 96 984.3
20260504003044 41 28 25.2 33.9 0.02 0.10 0.10 95 985.0
20260504001607 41 36 26.9 34.8 0.04 0.09 0.09 95 985.1
20260504000045 41 54 21.7 28.7 0.07 0.08 0.08 96 985.9
20260503234553 40 33 24.3 33.0 0.08 0.08 0.08 97 986.8
20260503233045 40 40 26.1 31.3 0.07 0.07 0.07 97 987.7
20260503231549 40 37 25.2 32.2 0.04 0.04 0.04 97 988.6
20260503230048 39 31 22.6 30.4 0.00 0.00 0.00 97 989.1
20260503224545 0 33 22.6 30.4 0.00 0.00 0.00 990.1
20260503223054 0 48 21.7 27.8 0.00 0.00 0.00 991.2
20260503221551 0 45 21.7 26.1 0.00 0.00 0.00 992.2
20260503220108 0 32 19.1 24.3 0.00 0.00 0.00 993.3
20260503214549 0 43 20.0 24.3 0.00 0.00 0.00 994.0
20260503213050 0 50 15.6 27.8 0.00 0.00 0.00 994.5
20260503211601 0 55 24.3 27.8 0.00 0.00 0.00 994.6
20260503210049 0 42 22.6 31.3 0.00 0.00 0.00 995.3
20260503204553 0 49 24.3 29.5 0.00 0.00 0.00 996.0
20260503203047 0 36 20.9 28.7 0.00 0.00 0.00 996.4
20260503201542 0 44 24.3 30.4 0.00 0.00 0.00 996.9
20260503200049 0 60 26.9 33.0 0.00 0.00 0.00 998.0
20260503194548 0 58 25.2 30.4 0.00 0.00 0.00 998.2
20260503193049 0 62 25.2 30.4 0.00 0.00 0.00 999.4
20260503191542 0 51 23.5 29.5 0.00 0.00 0.00 999.8
20260503190048 0 45 23.5 31.3 0.00 0.00 0.00 1000.3
20260503184548 0 49 23.5 28.7 0.00 0.00 0.00 1001.4
20260503183045 0 51 21.7 26.9 0.00 0.00 0.00 1002.4
20260503181617 0 53 18.2 21.7 0.00 0.00 0.00 1003.6
20260503180104 0 54 14.8 19.1 0.00 0.00 0.00 1004.8
20260503174554 0 45 13.9 17.4 0.00 0.00 0.00 1005.2
20260503173055 0 51 11.3 16.5 0.00 0.00 0.00 1005.8
20260503171546 0 65 11.3 16.5 0.00 0.00 0.00 1006.9